CST,Max TemperatureF,Mean TemperatureF,Min TemperatureF,Max Dew PointF,MeanDew PointF,Min DewpointF,Max Humidity, Mean Humidity, Min Humidity, Max Sea Level PressureIn, Mean Sea Level PressureIn, Min Sea Level PressureIn, Max VisibilityMiles, Mean VisibilityMiles, Min VisibilityMiles, Max Wind SpeedMPH, Mean Wind SpeedMPH, Max Gust SpeedMPH,PrecipitationIn, CloudCover, Events, WindDirDegrees
2013-1-1,23,16,9,15,9,5,81,70,51,30.26,30.20,30.13,10,10,10,14,9,17,0.00,2,,325
2013-1-2,32,20,9,20,12,4,83,70,48,30.22,30.14,30.08,10,10,10,17,8,20,0.00,1,,211
2013-1-3,33,24,16,26,20,12,86,76,58,30.32,30.21,30.11,10,10,7,23,12,31,0.00,7,,272
2013-1-4,35,24,13,23,19,10,86,75,58,30.30,30.24,30.18,10,10,10,21,13,29,0.00,0,,242
2013-1-5,36,28,20,33,27,18,93,85,67,30.24,30.12,29.96,10,10,1,21,10,25,0.00,4,Rain-Snow,213
2013-1-6,36,28,18,32,21,15,92,83,72,30.34,30.16,29.94,10,9,5,22,14,30,0.00,3,,270
2013-1-7,40,28,15,29,23,14,92,78,54,30.33,30.21,30.10,10,9,7,22,11,29,0.00,0,,188
2013-1-8,46,36,26,32,28,23,88,75,53,30.14,30.09,30.03,10,9,7,18,10,26,0.00,2,,189
2013-1-9,48,38,28,34,29,24,87,70,49,30.50,30.30,30.03,10,10,10,21,13,28,0.00,0,,265
2013-1-10,45,34,25,44,30,22,97,80,47,30.49,30.20,29.82,10,7,1,22,8,29,0.85,4,Rain,104
2013-1-11,53,48,43,50,47,42,100,91,83,29.81,29.73,29.64,10,7,0,23,13,28,0.25,5,Fog-Rain,192
2013-1-12,53,40,28,47,35,24,90,81,74,30.00,29.89,29.71,10,9,2,21,13,25,0.05,4,Rain-Snow,283
2013-1-13,27,20,14,25,16,9,93,82,73,30.27,30.08,29.89,10,9,4,16,11,23,0.01,6,Rain-Snow,297
2013-1-14,24,18,12,16,12,8,85,78,63,30.45,30.42,30.27,10,10,10,9,6,,0.00,0,,299
2013-1-15,29,22,14,22,16,10,91,77,58,30.43,30.32,30.12,10,10,7,7,1,,0.00,0,,152
2013-1-16,38,26,14,29,21,11,93,75,56,30.12,29.99,29.85,10,10,7,23,9,30,0.00,3,,237
2013-1-17,35,28,20,31,20,13,92,72,52,30.41,30.31,30.08,10,10,7,18,10,23,0.00,1,,313
2013-1-18,43,32,21,32,26,18,87,71,56,30.43,30.18,29.94,10,10,10,29,12,34,0.00,1,,198
2013-1-19,49,38,26,37,31,12,71,64,50,30.03,29.88,29.76,10,10,10,32,18,47,0.00,0,,243
2013-1-20,25,20,14,13,8,6,73,64,54,30.33,30.25,30.05,10,10,10,32,19,41,0.00,3,,297
2013-1-21,14,10,4,8,-1,-8,76,61,43,30.31,30.24,30.17,10,10,5,25,16,34,0.00,2,,288
2013-1-22,14,8,1,2,-3,-8,77,61,49,30.41,30.35,30.30,10,10,10,18,10,25,0.00,3,,288
2013-1-23,26,19,12,14,6,1,78,61,53,30.38,30.23,30.11,10,10,4,25,6,32,0.00,6,Snow,256
2013-1-24,23,14,6,7,2,-3,67,55,42,30.63,30.49,30.32,10,10,10,16,11,22,0.00,1,,70
2013-1-25,34,26,19,22,16,6,89,69,50,30.30,30.11,29.98,10,9,2,22,12,28,0.00,5,Snow,240
2013-1-26,29,19,9,15,11,6,83,66,47,30.40,30.33,30.21,10,10,10,12,7,,0.00,2,,20
2013-1-27,40,32,26,39,26,15,100,81,60,30.34,30.13,29.87,10,6,0,17,12,22,0.35,6,Fog-Rain-Thunderstorm,147
2013-1-28,53,46,41,53,44,40,100,96,93,29.94,29.87,29.76,4,2,0,18,11,25,0.16,8,Fog-Rain-Thunderstorm,166
2013-1-29,66,58,50,60,55,50,100,92,79,29.75,29.57,29.39,10,5,0,21,14,28,1.17,7,Rain-Thunderstorm,206
2013-1-30,44,32,18,45,31,11,100,93,72,29.72,29.42,29.25,10,6,2,25,12,33,0.39,8,Rain-Snow,310
2013-1-31,19,12,4,15,7,-3,83,75,69,30.24,29.95,29.73,10,9,2,26,19,36,0.00,6,Snow,280